EW7554 Weather Reports


Display with metric or nautical units.
time (UTC)temp
F
wind
direction
speed
MPH
gust
MPH
rain 1hr
in
rain 24hr
in
rain mn
in
humidity
%
barometer
mb
20260504190116 60 338 10.0 25.0 0.00 0.00 0.00 38 1000.6
20260504184551 59 294 13.0 25.0 0.00 0.00 0.00 37 1000.4
20260504183051 60 292 10.0 23.0 0.00 0.00 0.00 35 1000.1
20260504181550 59 292 16.0 26.0 0.00 0.00 0.00 35 1000.1
20260504180049 60 271 5.0 23.0 0.00 0.00 0.00 37 999.6
20260504174548 61 290 10.0 24.0 0.00 0.00 0.00 37 999.4
20260504173047 60 266 13.0 26.0 0.00 0.00 0.00 38 999.4
20260504171546 62 305 11.0 19.0 0.00 0.00 0.00 39 999.2
20260504081533 56 186 8.0 14.0 0.00 0.00 0.00 45 998.5
20260504050113 57 188 4.0 7.0 0.00 0.00 0.00 45 1002.0
20260504044553 58 173 4.0 7.0 0.00 0.00 0.00 43 1002.3
20260504043106 58 189 5.0 8.0 0.00 0.00 0.00 42 1002.5
20260504041549 59 186 4.0 8.0 0.00 0.00 0.00 41 1002.8
20260504040047 59 199 2.0 5.0 0.00 0.00 0.00 40 1003.2
20260504034544 60 195 2.0 5.0 0.00 0.00 0.00 38 1003.5
20260504033043 60 192 3.0 5.0 0.00 0.00 0.00 37 1003.7
20260504031540 60 199 3.0 5.0 0.00 0.00 0.00 38 1003.9
20260504030043 61 186 2.0 4.0 0.00 0.00 0.00 37 1003.9
20260504024540 62 227 2.0 4.0 0.00 0.00 0.00 34 1004.0
20260504023038 62 233 1.0 3.0 0.00 0.00 0.00 33 1004.2
20260504021537 63 233 1.0 3.0 0.00 0.00 0.00 32 1004.2
20260504020037 64 234 1.0 4.0 0.00 0.00 0.00 31 1004.2
20260504014549 64 232 1.0 4.0 0.00 0.00 0.00 30 1004.2
20260504013040 66 269 1.0 5.0 0.00 0.00 0.00 28 1004.4
20260504011533 67 234 2.0 6.0 0.00 0.00 0.00 27 1004.4
20260504010033 68 268 3.0 8.0 0.00 0.00 0.00 26 1004.5
20260504004532 68 259 4.0 10.0 0.00 0.00 0.00 26 1004.5
20260504003031 70 200 3.0 13.0 0.00 0.00 0.00 25 1004.5
20260504001529 70 279 3.0 11.0 0.00 0.00 0.00 25 1004.6
20260504000040 69 295 5.0 11.0 0.00 0.00 0.00 24 1004.7
20260503234529 71 251 2.0 9.0 0.00 0.00 0.00 25 1004.6
20260503233028 71 265 6.0 14.0 0.00 0.00 0.00 24 1004.7
20260503231526 72 255 4.0 10.0 0.00 0.00 0.00 23 1005.0
20260503230026 71 326 3.0 12.0 0.00 0.00 0.00 24 1005.1
20260503224531 71 248 6.0 18.0 0.00 0.00 0.00 23 1005.2
20260503223024 71 316 6.0 15.0 0.00 0.00 0.00 24 1005.3
20260503221523 70 342 5.0 18.0 0.00 0.00 0.00 24 1005.3
20260503220026 70 312 4.0 16.0 0.00 0.00 0.00 24 1005.4
20260503214530 70 323 9.0 15.0 0.00 0.00 0.00 24 1005.5
20260503213025 70 284 7.0 14.0 0.00 0.00 0.00 24 1005.6
20260503211522 70 299 11.0 20.0 0.00 0.00 0.00 25 1005.8
20260503210038 69 260 9.0 16.0 0.00 0.00 0.00 26 1005.8
20260503204519 71 203 6.0 14.0 0.00 0.00 0.00 26 1006.0
20260503203019 70 350 3.0 13.0 0.00 0.00 0.00 28 1006.0
20260503201521 70 297 10.0 15.0 0.00 0.00 0.00 28 1006.2
20260503200018 70 298 7.0 17.0 0.00 0.00 0.00 29 1006.3
20260503194515 70 250 6.0 17.0 0.00 0.00 0.00 27 1006.6
20260503193014 69 332 7.0 19.0 0.00 0.00 0.00 27 1006.6
20260503191513 69 313 10.0 18.0 0.00 0.00 0.00 27 1006.7